Location: ????????
(55.4000°N, 39.1167°E)
Time: 18:09:16
(UTC+00:00)

Cosmos 1680 Rocket - Pass Details

Date: 19 May 2025
Orbit: 757 x 776 km, 74.1° (Epoch: 20 June)

Event Time Altitude Azimuth Distance (km) Brightness Sun altitude
Exits shadow 22:39:26 15° 227° (SW) 1,999 5.1 -12.8°
Maximum altitude 22:43:46 57° 304° (WNW) 897 3.9 -12.5°
Drops below altitude 10° 22:48:55 10° 23° (NNE) 2,304 7.5 -12.3°
Sets 22:51:21 0° 28° (NNE) 3,231 8.8 -12.2°
